Location: Burla
(50.9568°N, 10.4983°E)
Time: 20:43:03
(UTC+00:00)

Okean 1-7 - Pass Details

Date: 18 January 2026
Orbit: 566 x 588 km, 82.5° (Epoch: 14 February)

Event Time Altitude Azimuth Distance (km) Brightness Sun altitude
Exits shadow 04:51:42 - 357° (N) 2,129 5.7 -21.5°
Reaches altitude 10° 04:52:20 10° 359° (N) 1,885 5.5 -21.4°
Maximum altitude 04:56:21 48° 75° (ENE) 753 3.8 -20.8°
Drops below altitude 10° 05:00:23 10° 151° (SSE) 1,882 6.0 -20.1°
Sets 05:02:38 0° 157° (SSE) 2,780 6.9 -19.8°
